Weather History for Shepherd Bay, NU

Change the Weather History Date:

Sunday, October 13, 2013

  Actual Average Record
Temperature  
Mean Temperature 29 °F -  
Max Temperature 30 °F - - ()
Min Temperature 28 °F - - ()
Degree Days  
Heating Degree Days 36    
Moisture  
Dew Point -    
Average Humidity    
Maximum Humidity    
Minimum Humidity    
Precipitation  
Precipitation 0.00 in - - ()
Sea Level Pressure  
Sea Level Pressure 29.81 in    
Wind  
Wind Speed 5 mph ()    
Max Wind Speed 13 mph    
Max Gust Speed -    
Visibility 7.7 miles    
Events Snow    
T = Trace of Precipitation, MM = Missing Value Source: Averaged Metar Reports

Daily Weather History Graph

Daily Weather History Graph

Search for Another Location

Airport:

Trip Planner

Search our weather history database for the weather conditions in past years. The results will help you decide how hot, cold, wet, or windy it might be!

Date:

Astronomy

Oct. 13, 2013 Rise Set
Actual Time 8:14 AM CDT 5:43 PM CDT
Civil Twilight 7:15 AM CDT 6:42 PM CDT
Nautical Twilight 6:08 AM CDT 7:48 PM CDT
Astronomical Twilight 4:58 AM CDT 8:58 PM CDT
Moon 4:54 PM CDT (10/13) No Moon Set
Length of Visible Light 11h 26m
Length of Day
9h 28m
Waxing Gibbous, 69% of the Moon is Illuminated
Oct 13
Waxing Gibbous
Oct 18
Full
Oct 26
Last Quarter
Nov 3
New
Nov 9
First Quarter

Hourly Weather History & Observations

Time (CDT) Temp. Windchill Dew Point Humidity Pressure Visibility Wind Dir Wind Speed Gust Speed Precip Events Conditions
12:00 AM 28.4 °F 21.2 °F - N/A% 29.75 in 7.0 mi West 6.9 mph - N/A   Overcast
12:14 AM 28.4 °F 22.2 °F - N/A% 29.74 in 8.0 mi West 5.8 mph - N/A   Overcast
12:25 AM 28.4 °F 22.2 °F - N/A% 29.73 in 6.0 mi West 5.8 mph - N/A   Overcast
12:38 AM 28.4 °F 24.6 °F - N/A% 29.74 in 7.0 mi West 3.5 mph - N/A   Overcast
12:43 AM 28.4 °F 23.3 °F - N/A% 29.74 in 6.0 mi West 4.6 mph - N/A   Overcast
12:57 AM 28.4 °F 22.2 °F - N/A% 29.74 in 5.0 mi WSW 5.8 mph - N/A Snow Light Snow
1:00 AM 29 °F - - % 29.75 in 3 mi WSW 4.6 mph - -  
1:00 AM 28.4 °F 22.2 °F - N/A% 29.75 in 3.0 mi WSW 5.8 mph - N/A Snow Light Snow
1:05 AM 28.4 °F 23.3 °F - N/A% 29.74 in 2.5 mi West 4.6 mph - N/A Snow Light Snow
1:13 AM 28.4 °F 23.3 °F - N/A% 29.74 in 3.0 mi WSW 4.6 mph - N/A Snow Light Snow
1:15 AM 28.4 °F 23.3 °F - N/A% 29.74 in 3.0 mi West 4.6 mph - N/A   Overcast
1:16 AM 28.4 °F 24.6 °F - N/A% 29.74 in 3.0 mi WSW 3.5 mph - N/A   Overcast
1:18 AM 28.4 °F 24.6 °F - N/A% 29.74 in 8.0 mi WSW 3.5 mph - N/A   Overcast
1:21 AM 28.4 °F 23.3 °F - N/A% 29.74 in 9.0 mi West 4.6 mph - N/A   Overcast
1:32 AM 28.4 °F 23.3 °F - N/A% 29.74 in 7.0 mi WSW 4.6 mph - N/A   Overcast
1:33 AM 28.4 °F 23.3 °F - N/A% 29.74 in 7.0 mi West 4.6 mph - N/A   Overcast
1:34 AM 28.4 °F 22.2 °F - N/A% 29.74 in 7.0 mi West 5.8 mph - N/A   Overcast
2:00 AM 28.4 °F 24.6 °F - N/A% 29.76 in 9.0 mi West 3.5 mph - N/A   Overcast
2:43 AM 28.4 °F - - N/A% 29.75 in 5.0 mi West 2.3 mph - N/A   Overcast
2:53 AM 28.4 °F - - N/A% 29.75 in 8.0 mi WSW 2.3 mph - N/A   Overcast
2:58 AM 28.4 °F 24.6 °F - N/A% 29.75 in 9.0 mi WSW 3.5 mph - N/A   Overcast
3:00 AM 28.4 °F - - N/A% 29.77 in 9.0 mi West 2.3 mph - N/A   Overcast
4:00 AM 29 °F - - % 29.77 in 7 mi West 2.3 mph - -   Overcast
4:00 AM 28.4 °F - - N/A% 29.77 in 7.0 mi Calm Calm - N/A   Overcast
4:21 AM 28.4 °F - - N/A% 29.75 in 9.0 mi Calm Calm - N/A   Overcast
4:27 AM 28.4 °F - - N/A% 29.75 in 9.0 mi West 2.3 mph - N/A   Overcast
5:00 AM 28.4 °F - - N/A% 29.77 in 9.0 mi WSW 2.3 mph - N/A   Overcast
5:33 AM 28.4 °F - - N/A% 29.76 in 9.0 mi WNW 2.3 mph - N/A   Partly Cloudy
5:35 AM 28.4 °F - - N/A% 29.76 in 9.0 mi Calm Calm - N/A   Overcast
5:36 AM 28.4 °F - - N/A% 29.76 in 9.0 mi Calm Calm - N/A   Overcast
5:42 AM 28.4 °F - - N/A% 29.76 in 9.0 mi Calm Calm - N/A   Overcast
5:44 AM 28.4 °F - - N/A% 29.76 in 9.0 mi WNW 2.3 mph - N/A   Overcast
6:00 AM 28.4 °F - - N/A% 29.78 in 9.0 mi WNW 2.3 mph - N/A   Overcast
6:23 AM 28.4 °F 24.6 °F - N/A% 29.76 in 9.0 mi NW 3.5 mph - N/A   Overcast
6:36 AM 28.4 °F 24.6 °F - N/A% 29.76 in 9.0 mi WNW 3.5 mph - N/A   Overcast
6:45 AM 28.4 °F 24.6 °F - N/A% 29.76 in 9.0 mi WNW 3.5 mph - N/A   Overcast
7:00 AM 29 °F - - % 29.78 in 9 mi WNW 5.8 mph - -   Overcast
7:00 AM 28.4 °F 22.2 °F - N/A% 29.78 in 9.0 mi WNW 5.8 mph - N/A   Overcast
7:10 AM 28.4 °F 22.2 °F - N/A% 29.76 in 9.0 mi WNW 5.8 mph - N/A   Overcast
7:21 AM 28.4 °F 24.6 °F - N/A% 29.77 in 9.0 mi WNW 3.5 mph - N/A   Overcast
7:33 AM 28.4 °F 24.6 °F - N/A% 29.77 in 8.0 mi NW 3.5 mph - N/A   Overcast
8:00 AM 28.4 °F 23.3 °F - N/A% 29.79 in 8.0 mi NW 4.6 mph - N/A   Overcast
8:12 AM 28.4 °F 23.3 °F - N/A% 29.77 in 9.0 mi NW 4.6 mph - N/A   Overcast
8:51 AM 28.4 °F 24.6 °F - N/A% 29.78 in 9.0 mi NW 3.5 mph - N/A   Overcast
9:00 AM 28.4 °F - - N/A% 29.80 in 9.0 mi NNW 2.3 mph - N/A   Overcast
9:26 AM 28.4 °F - - N/A% 29.78 in 8.0 mi NNW 2.3 mph - N/A   Overcast
10:00 AM 28 °F - - % 29.80 in 9 mi NNW 2.3 mph - -   Overcast
10:00 AM 28.4 °F - - N/A% 29.80 in 9.0 mi NNW 2.3 mph - N/A   Overcast
10:55 AM 28.4 °F 23.3 °F - N/A% 29.79 in 9.0 mi NW 4.6 mph - N/A   Overcast
10:59 AM 28.4 °F 24.6 °F - N/A% 29.79 in 9.0 mi NW 3.5 mph - N/A   Overcast
11:00 AM 28.4 °F 24.6 °F - N/A% 29.81 in 9.0 mi NW 3.5 mph - N/A   Overcast
11:12 AM 28.4 °F 24.6 °F - N/A% 29.79 in 9.0 mi NW 3.5 mph - N/A   Overcast
11:16 AM 28.4 °F 24.6 °F - N/A% 29.79 in 9.0 mi NW 3.5 mph - N/A   Overcast
11:21 AM 28.4 °F 24.6 °F - N/A% 29.79 in 9.0 mi NNW 3.5 mph - N/A   Overcast
11:24 AM 28.4 °F 24.6 °F - N/A% 29.80 in 9.0 mi NW 3.5 mph - N/A   Overcast
11:34 AM 28.4 °F 22.2 °F - N/A% 29.79 in 9.0 mi NNW 5.8 mph - N/A   Overcast
11:35 AM 28.4 °F 22.2 °F - N/A% 29.79 in 9.0 mi NW 5.8 mph - N/A   Overcast
11:37 AM 28.4 °F 23.3 °F - N/A% 29.79 in 9.0 mi WNW 4.6 mph - N/A   Overcast
11:47 AM 28.4 °F 22.2 °F - N/A% 29.79 in 9.0 mi NW 5.8 mph - N/A   Overcast
11:51 AM 28.4 °F 21.2 °F - N/A% 29.79 in 9.0 mi NW 6.9 mph - N/A   Overcast
12:00 PM 28.4 °F 22.2 °F - N/A% 29.81 in 9.0 mi NNW 5.8 mph - N/A   Overcast
12:51 PM 28.4 °F 21.2 °F - N/A% 29.80 in 3.0 mi NNE 6.9 mph - N/A   Clear
12:59 PM 28.4 °F 23.3 °F - N/A% 29.80 in 3.5 mi NNE 4.6 mph - N/A   Overcast
1:00 PM 29 °F - - % 29.82 in 4 mi North 5.8 mph - -   Overcast
1:00 PM 28.4 °F 22.2 °F - N/A% 29.82 in 4.0 mi North 5.8 mph - N/A   Overcast
1:15 PM 28.4 °F 23.3 °F - N/A% 29.80 in 4.0 mi NNE 4.6 mph - N/A   Overcast
1:16 PM 28.4 °F 23.3 °F - N/A% 29.80 in 4.0 mi NNE 4.6 mph - N/A   Overcast
1:18 PM 28.4 °F 22.2 °F - N/A% 29.80 in 5.0 mi North 5.8 mph - N/A   Overcast
1:32 PM 28.4 °F 23.3 °F - N/A% 29.81 in 9.0 mi North 4.6 mph - N/A   Mostly Cloudy
1:35 PM 28.4 °F 23.3 °F - N/A% 29.81 in 9.0 mi North 4.6 mph - N/A   Overcast
1:36 PM 28.4 °F 23.3 °F - N/A% 29.81 in 9.0 mi North 4.6 mph - N/A   Overcast
1:40 PM 28.4 °F 23.3 °F - N/A% 29.81 in 9.0 mi NNW 4.6 mph - N/A   Overcast
1:43 PM 28.4 °F 23.3 °F - N/A% 29.81 in 8.0 mi NNW 4.6 mph - N/A   Overcast
1:58 PM 28.4 °F 23.3 °F - N/A% 29.81 in 2.6 mi NNW 4.6 mph - N/A   Overcast
2:00 PM 28.4 °F 23.3 °F - N/A% 29.82 in 2.1 mi NNW 4.6 mph - N/A   Overcast
2:16 PM 28.4 °F 24.6 °F - N/A% 29.81 in 1.4 mi North 3.5 mph - N/A   Clear
2:47 PM 28.4 °F 22.2 °F - N/A% 29.81 in 3.0 mi NNW 5.8 mph - N/A   Clear
3:00 PM 30.2 °F 23.4 °F - N/A% 29.83 in 9.0 mi NNW 6.9 mph - N/A   Overcast
3:08 PM 30.2 °F 24.3 °F - N/A% 29.81 in 9.0 mi NNW 5.8 mph - N/A   Overcast
3:35 PM 30.2 °F 23.4 °F - N/A% 29.82 in 9.0 mi North 6.9 mph - N/A   Overcast
3:36 PM 30.2 °F 22.6 °F - N/A% 29.82 in 9.0 mi North 8.1 mph - N/A   Overcast
3:38 PM 30.2 °F 22.6 °F - N/A% 29.82 in 9.0 mi North 8.1 mph - N/A   Overcast
3:48 PM 30.2 °F 22.6 °F - N/A% 29.82 in 9.0 mi North 8.1 mph - N/A   Overcast
3:58 PM 30.2 °F 23.4 °F - N/A% 29.82 in 9.0 mi NNW 6.9 mph - N/A   Overcast
4:00 PM 29 °F - - % 29.84 in 9 mi NNW 6.9 mph - -   Overcast
4:00 PM 30.2 °F 23.4 °F - N/A% 29.84 in 9.0 mi North 6.9 mph - N/A   Overcast
4:25 PM 28.4 °F 19.7 °F - N/A% 29.82 in 9.0 mi North 9.2 mph - N/A   Mostly Cloudy
4:26 PM 28.4 °F 20.4 °F - N/A% 29.82 in 9.0 mi North 8.1 mph - N/A   Mostly Cloudy
4:27 PM 28.4 °F 19.7 °F - N/A% 29.82 in 9.0 mi NNW 9.2 mph - N/A   Overcast
4:36 PM 28.4 °F 19.7 °F - N/A% 29.82 in 9.0 mi NNW 9.2 mph - N/A   Overcast
4:46 PM 28.4 °F 20.4 °F - N/A% 29.82 in 9.0 mi NNW 8.1 mph - N/A   Overcast
4:58 PM 28.4 °F 20.4 °F - N/A% 29.83 in 9.0 mi North 8.1 mph - N/A   Overcast
5:00 PM 28.4 °F 19.7 °F - N/A% 29.84 in 9.0 mi North 9.2 mph - N/A   Overcast
5:08 PM 28.4 °F 20.4 °F - N/A% 29.83 in 9.0 mi North 8.1 mph - N/A   Overcast
5:11 PM 28.4 °F 20.4 °F - N/A% 29.83 in 9.0 mi North 8.1 mph - N/A   Overcast
5:39 PM 28.4 °F 19.7 °F - N/A% 29.83 in 9.0 mi North 9.2 mph - N/A   Overcast
5:43 PM 28.4 °F 19.7 °F - N/A% 29.83 in 9.0 mi North 9.2 mph - N/A   Overcast
6:00 PM 28.4 °F 19.7 °F - N/A% 29.86 in 9.0 mi North 9.2 mph - N/A   Overcast
6:07 PM 28.4 °F 19.7 °F - N/A% 29.84 in 9.0 mi North 9.2 mph - N/A   Overcast
6:16 PM 28.4 °F 19.7 °F - N/A% 29.84 in 9.0 mi North 9.2 mph - N/A   Mostly Cloudy
6:21 PM 28.4 °F 19.1 °F - N/A% 29.84 in 9.0 mi North 10.4 mph - N/A   Overcast
6:38 PM 28.4 °F 19.1 °F - N/A% 29.84 in 9.0 mi North 10.4 mph - N/A   Overcast
6:43 PM 28.4 °F 19.7 °F - N/A% 29.85 in 9.0 mi North 9.2 mph - N/A   Overcast
7:00 PM 29 °F - - % 29.86 in 9 mi North 9.2 mph - -   Overcast
7:00 PM 28.4 °F 19.7 °F - N/A% 29.86 in 9.0 mi North 9.2 mph - N/A   Overcast
7:11 PM 28.4 °F 20.4 °F - N/A% 29.85 in 9.0 mi North 8.1 mph - N/A   Overcast
7:20 PM 28.4 °F 20.4 °F - N/A% 29.85 in 9.0 mi North 8.1 mph - N/A   Overcast
7:42 PM 28.4 °F 21.2 °F - N/A% 29.85 in 9.0 mi North 6.9 mph - N/A   Overcast
7:54 PM 28.4 °F 21.2 °F - N/A% 29.85 in 9.0 mi North 6.9 mph - N/A   Overcast
8:00 PM 28.4 °F 21.2 °F - N/A% 29.87 in 9.0 mi North 6.9 mph - N/A   Overcast
8:24 PM 28.4 °F 21.2 °F - N/A% 29.86 in 9.0 mi North 6.9 mph - N/A   Overcast
8:32 PM 28.4 °F 21.2 °F - N/A% 29.85 in 9.0 mi North 6.9 mph - N/A   Overcast
8:40 PM 28.4 °F 22.2 °F - N/A% 29.86 in 9.0 mi North 5.8 mph - N/A   Overcast
8:41 PM 28.4 °F 21.2 °F - N/A% 29.86 in 9.0 mi North 6.9 mph - N/A   Overcast
8:56 PM 28.4 °F 21.2 °F - N/A% 29.86 in 9.0 mi North 6.9 mph - N/A   Overcast
8:57 PM 28.4 °F 21.2 °F - N/A% 29.86 in 9.0 mi North 6.9 mph - N/A   Overcast
9:00 PM 28.4 °F 20.4 °F - N/A% 29.87 in 9.0 mi North 8.1 mph - N/A   Overcast
9:48 PM 28.4 °F 19.1 °F - N/A% 29.86 in 9.0 mi North 10.4 mph - N/A   Overcast
9:51 PM 28.4 °F 19.1 °F - N/A% 29.86 in 9.0 mi North 10.4 mph - N/A   Overcast
10:00 PM 28 °F - - % 29.87 in 9 mi North 10.4 mph - -   Overcast
10:00 PM 28.4 °F 19.7 °F - N/A% 29.87 in 9.0 mi North 9.2 mph - N/A   Overcast
10:18 PM 28.4 °F 19.1 °F - N/A% 29.86 in 9.0 mi North 10.4 mph - N/A   Overcast
10:19 PM 28.4 °F 19.1 °F - N/A% 29.86 in 9.0 mi North 10.4 mph - N/A   Overcast
10:33 PM 28.4 °F 18.5 °F - N/A% 29.86 in 9.0 mi North 11.5 mph - N/A   Overcast
10:39 PM 28.4 °F 18.0 °F - N/A% 29.86 in 9.0 mi North 12.7 mph - N/A   Overcast
10:56 PM 28.4 °F 19.1 °F - N/A% 29.86 in 3.0 mi North 10.4 mph - N/A   Overcast
10:58 PM 28.4 °F 19.1 °F - N/A% 29.86 in 2.5 mi North 10.4 mph - N/A   Overcast
11:00 PM 28.4 °F 19.1 °F - N/A% 29.88 in 1.6 mi North 10.4 mph - N/A   Overcast
11:07 PM 28.4 °F 19.1 °F - N/A% 29.86 in 1.2 mi North 10.4 mph - N/A   Mostly Cloudy
11:11 PM 28.4 °F 19.7 °F - N/A% 29.86 in 1.4 mi North 9.2 mph - N/A   Overcast
11:12 PM 28.4 °F 19.1 °F - N/A% 29.86 in 3.0 mi North 10.4 mph - N/A   Overcast
11:13 PM 28.4 °F 19.1 °F - N/A% 29.86 in 4.0 mi North 10.4 mph - N/A   Overcast
11:22 PM 28.4 °F 19.1 °F - N/A% 29.86 in 9.0 mi North 10.4 mph - N/A   Overcast
11:32 PM 28.4 °F 18.5 °F - N/A% 29.86 in 9.0 mi North 11.5 mph - N/A   Overcast
11:34 PM 28.4 °F 19.1 °F - N/A% 29.86 in 9.0 mi North 10.4 mph - N/A   Overcast
11:47 PM 28.4 °F 19.7 °F - N/A% 29.86 in 9.0 mi North 9.2 mph - N/A   Overcast
11:56 PM 28.4 °F 18.5 °F - N/A% 29.86 in 9.0 mi North 11.5 mph - N/A   Mostly Cloudy
11:57 PM 28.4 °F 18.5 °F - N/A% 29.86 in 9.0 mi North 11.5 mph - N/A   Overcast